Regional Weather Roundup
Issued by NWS

Home | Current Version | Previous Version | Graphics & Text | Print | Product List | Glossary On
Versions: 1 2 3 4 5 6 7 8 9 10 11 12 13 14 15 16 17 18 19 20 21 22 23 24 25 26 27
000
ASUS45 KCYS 211110
RWRWY

WYOMING REGIONAL WEATHER ROUNDUP
NATIONAL WEATHER SERVICE CHEYENNE WY
500 AM MDT MON AUG 21 2017

NOTE:  "FAIR" INDICATES FEW OR NO CLOUDS BELOW 12,000 FEET
WITH NO SIGNIFICANT WEATHER AND/OR OBSTRUCTIONS TO VISIBILITY.

WYZ001-211200-
YELLOWSTONE NATIONAL PARK

CITY           SKY/WX    TMP DP  RH WIND       PRES   REMARKS
LK YELLOWSTONE   N/A     39  36  89 CALM      30.34R
W YELLOWSTONE  NOT AVBL

$$
WYZ002>013-054>058-071-098>099-211200-
NORTHERN WYOMING

CITY           SKY/WX    TMP DP  RH WIND       PRES   REMARKS
JACKSON        FAIR      41  27  57 NE3       30.26S
CODY           FAIR      56  35  45 S3        30.18R
GREYBULL       FAIR      55  39  54 SE5       30.08R
WORLAND        FAIR      53  38  56 S9        30.09R
SHERIDAN       FAIR      53  41  63 CALM      30.10R
BUFFALO        FAIR      64  34  32 NW12      30.14R
GILLETTE       FAIR      55  40  56 W3        30.07S
HULETT         FAIR      63  54  72 SW3       30.07R
NEWCASTLE      FAIR      63  54  72 N7        30.04S

$$
WYZ014>020-022>026-101>103-211200-
CENTRAL WYOMING

CITY           SKY/WX    TMP DP  RH WIND       PRES   REMARKS
BIG PINEY      FAIR      41  30  65 CALM      30.28S
PINEDALE       FAIR      37  32  81 W9        30.29S WCI  31
DUBOIS         FAIR      45  25  45 NW12      30.27R
LANDER           N/A    N/A N/A N/A MISG      30.16S
RIVERTON       FAIR      59  37  44 CALM      30.17R
CASPER         FAIR      50  39  66 W3        30.17R
DOUGLAS        FAIR      57  41  55 NW7       30.11R

$$
WYZ021-027>030-104>119-211200-
SOUTHERN WYOMING

CITY           SKY/WX    TMP DP  RH WIND       PRES   REMARKS
EVANSTON       FAIR      53  33  46 S8        30.27S
KEMMERER         N/A     46  32  57 N15       30.29R
FORT BRIDGER   FAIR      59  31  34 W8        30.29S
ROCK SPRINGS   FAIR      60  36  40 CALM      30.24S
RAWLINS        FAIR      51  35  54 CALM      30.24S
SARATOGA       FAIR      50  37  62 S14       30.26S
LARAMIE        FAIR      49  37  63 S7        30.26R
CHEYENNE       FAIR      55  41  59 W8        30.15F
TORRINGTON     FAIR      60  60 100 W6        30.02R FOG
PINE BLUFFS    FAIR      54  54 100 W3        30.10R

$$




USA.gov is the U.S. government's official web portal to all federal, state and local government web resources and services.